Location: Sweetwater (historical)
(38.4624°N, 119.1749°W)
Time: 13:37:26
(UTC+00:00)

SeaSat 1 - Pass Details

Date: 13 August 2020
Orbit: 744 x 748 km, 108.0° (Epoch: 20 September)

Event Time Altitude Azimuth Distance (km) Brightness Sun altitude
Rises 12:15:17 0° 22° (NNE) 3,198 6.6 -10.6°
Reaches altitude 10° 12:17:34 10° 19° (NNE) 2,271 5.7 -10.2°
Maximum altitude 12:22:28 66° 298° (WNW) 815 2.5 -9.4°
Drops below altitude 10° 12:27:20 10° 217° (SW) 2,258 4.4 -8.5°
Enters shadow 12:28:00 - 216° (SW) 2,528 4.6 -8.4°
